CZ-6A DEB, 55201

Orbit data source: Space-Track

CZ-6A DEB, 55201 is space debris in SSO originally from a launch on Fri, 11 Nov 2022 UTC launched from the Taiyaun Space Center, China (TSC). Debris objects in space refer to the collection of defunct objects orbiting the Earth. Examples of debris include non-operational satellites, rocket bodies, and fragments generated from explosions, collisions, or faulty payload assembly.

Loading next visibility...
Identifier
55201, 2022-151VS
Orbit
SSO
Country
Flag of CNCN / PRC
Related business
Manufacturer
SAST
Mission
Spacecraft
Bus & Motor
Unknown
Mass
Unknown
Launch date (UTC)
2022-11-11 (3 years ago)
Launch vehicle
Unknown
Launch site
Taiyaun Space Center, China (TSC)
Object type
Payload
Rocket body
Debris
Shape & HBR
Unknown shape, 0.1 m
Radar Cross Section
Small (<0.1 m²)

Expand to show TLE details & history
Last TLE update: 2 days ago

TLE from 2 days ago
0 CZ-6A DEB
1 55201U 22151VS  25349.12848264  .00017858  00000-0  20532-2 0  9995
2 55201  98.6463  55.3867 0060328  91.1068 269.7057 14.84527730158998
Epoch: 2025-12-15T03:05Z
TLE epoch observation values (Epoch: 2025-12-15T03:05:00.900Z)
Latitude
0.00003°
Longitude
-74.89855°
Altitude
618.544 km
Speed
7.549 km/s
True Right ascension
03h 41m 32s
True Declination
0° 00' 00"
Sunlit
Object was in full shadow at epoch
Visualization orbit readout
Latitude
Unknown
Longitude
Unknown
Altitude
Unknown
Speed
Unknown
Apparent Right ascension
Unknown
Apparent Declination
Unknown
Sunlit
N/A
Visualization observer readout
Local Sidereal Time
15:44:54
Azimuth
Unknown
Elevation
Unknown
Doppler factor
Unknown
Orbital elements
Apogee altitude
654.309 km
Perigee altitude
569.967 km
Semi-major axis
6,990.275 km
Eccentricity
0.00603
Inclination
98.6463°
RAAN
55.3867°
Arg. of periapsis
91.1068°
True anomaly
269.01444°
Mean anomaly
269.7057°
Eccentric anomaly
269.36007°
Mean motion
3.71366 °/min
Orbital period
96.94 mins
BSTAR
0.0020532
Loading maneuver chart data...
Computing Atmospheric mass density...
Loading historical data...
Loading historical data...
Loading historical data...
Loading historical data...
Loading historical data...
Loading historical data...
Loading historical data...

Documentation

Showing up to 5 results
|